Location: De Forest
(43.2480°N, 89.3440°W)
Time: 00:09:59
(UTC-05:00)

ISS - Visible Passes

Search period start: 21 May 2019 00:00
Search period end: 31 May 2019 00:00
Orbit: 407 x 410 km, 51.6° (Epoch: 21 May)

Date Brightness Start Highest point End Pass type
(mag) Time Alt. Az. Time Alt. Az. Time Alt. Az.
21 May -1.4 01:12:06 10° NW 01:14:53 24° NNE 01:14:59 24° NNE visible
21 May -3.4 21:06:03 10° WSW 21:09:20 68° NNW 21:12:38 10° NE visible
21 May -1.2 22:43:43 10° WNW 22:46:21 22° N 22:49:00 10° NE visible
22 May -1.1 00:21:09 10° NW 00:23:44 20° N 00:24:57 17° NE visible
22 May -0.8 01:57:33 10° NW 01:57:39 11° NW 01:57:39 11° NW visible
22 May -1.5 21:52:21 10° WNW 21:55:12 26° NNW 21:58:04 10° NE visible
22 May -1.0 23:30:06 10° NW 23:32:32 19° N 23:34:59 10° NE visible
23 May -1.3 01:06:39 10° NW 01:08:00 20° NNW 01:08:00 20° NNW visible
23 May -2.0 21:01:01 10° W 21:04:05 35° NNW 21:07:10 10° NE visible
23 May -1.0 22:38:53 10° NW 22:41:20 19° N 22:43:46 10° NE visible
24 May -1.7 00:15:46 10° NW 00:18:29 27° NNE 00:18:29 27° NNE visible
24 May -1.1 21:47:34 10° WNW 21:50:06 20° N 21:52:40 10° NE visible
24 May -1.4 23:24:49 10° NW 23:27:30 22° NNE 23:29:01 16° NE visible
25 May -1.0 01:01:11 10° NW 01:01:44 14° NW 01:01:44 14° NW visible
25 May -1.3 20:56:10 10° WNW 20:58:54 23° NNW 21:01:39 10° NE visible
25 May -1.2 22:33:46 10° NW 22:36:17 19° N 22:38:46 10° NE visible
26 May -1.9 00:10:14 10° NW 00:12:18 31° NNW 00:12:18 31° NNW visible
26 May -1.1 21:42:36 10° NW 21:45:02 19° N 21:47:27 10° NE visible
26 May -2.2 23:19:19 10° NW 23:22:18 31° NNE 23:22:54 29° NE visible
27 May -1.7 22:28:21 10° NW 22:31:08 24° NNE 22:33:31 12° ENE visible
28 May -1.8 00:04:42 10° WNW 00:06:14 25° WNW 00:06:14 25° WNW visible
28 May -1.4 21:37:19 10° NW 21:39:53 20° N 21:42:28 10° ENE visible
28 May -3.3 23:13:42 10° NW 23:16:52 55° NNE 23:16:52 55° NNE visible
29 May -2.5 22:22:44 10° NW 22:25:50 36° NNE 22:27:31 21° ENE visible
29 May -1.3 23:59:21 10° WNW 00:00:14 16° W 00:00:14 16° W visible
30 May -2.0 21:31:46 10° NW 21:34:39 27° NNE 21:37:32 10° ENE visible
30 May -3.3 23:08:08 10° WNW 23:10:55 54° W 23:10:55 54° W visible
